[[{"header":{"parameterUnit":"m.s-1","parameterCategory":1,"la1":30.2991,"la2":30.254,"lo1":-89.0895,"lo2":-89.0444,"dy":0.0017,"dx":0.0017,"nx":28,"ny":28,"refTime":"2024-10-10T03:00:00:Z","depth":0,"parameterNumber":2,"parameterNumberName":"U-component_of_WINDS"},"data":[0,0,0,0,0,0,0,0,0,0,0,0,0,0,0,0,0,0,0,0,0,0,0,0,0,0,0,0,0,0,0,0,0,0,0,0,0,0,0,0,0,0,0,0,0,0,0,0,0,0,0,0,0,0,0,0,0,0,-2.7807,-2.7808,0,-2.7952,-2.7954,-2.7956,-2.7919,-2.7916,-2.7913,-2.791,-2.806,-2.8066,-2.8072,0,0,0,0,0,0,0,0,0,0,0,0,0,-2.7498,-2.7504,-2.7807,-2.7809,-2.781,-2.7952,-2.7954,-2.7956,-2.7919,-2.7916,-2.7912,-2.7909,-2.8057,-2.8065,-2.8073,0,0,0,0,0,0,0,0,0,0,0,0,0,-2.7637,-2.7506,-2.7806,-2.7809,-2.7811,-2.7952,-2.7954,-2.7957,-2.792,-2.7916,-2.7911,-2.7907,-2.8055,-2.8064,-2.8074,-2.8221,0,0,-2.8105,-2.8109,0,0,0,0,0,0,0,0,-2.7629,-2.7648,-2.7807,-2.7809,-2.7811,-2.7913,-2.79,-2.8045,-2.7921,-2.7879,-2.791,-2.7905,-2.8014,-2.8027,-2.8064,-2.8228,-2.8235,-2.8105,-2.8112,-2.8116,-2.8119,0,0,0,0,0,0,0,-2.7619,-2.7641,-2.7864,-2.7809,-2.7812,-2.7803,-2.7818,-2.7927,-2.7969,-2.7882,-2.788,-2.7897,-2.8015,-2.8054,-2.8067,-2.8237,-2.8105,-2.8114,-2.812,-2.8124,-2.853,-2.8535,0,0,0,0,0,0,-2.7608,-2.7634,-2.786,-2.7869,-2.7708,-2.7812,-2.7829,-2.7885,-2.7967,-2.7976,-2.7901,-2.7895,-2.804,-2.8056,-2.8072,-2.825,-2.8116,-2.8125,-2.8131,-2.8525,-2.8531,-2.8536,0,0,0,0,0,0,-2.7601,-2.7628,-2.7854,-2.7751,-2.7779,-2.7822,-2.7885,-2.789,-2.793,-2.7982,-2.7989,-2.7934,-2.8037,-2.8058,-2.8185,-2.8255,-2.813,-2.8139,-2.852,-2.8527,-2.8534,-2.8607,0,0,0,0,0,0,-2.7593,-2.7626,-2.7682,-2.7752,-2.7784,-2.7964,-2.7889,-2.7896,-2.7947,-2.7941,-2.8015,-2.8023,-2.8035,-2.817,-2.8195,-2.8266,-2.8146,-2.8514,-2.8523,-2.8532,-2.8598,-2.8615,-2.863,0,0,0,0,0,-2.7582,-2.7697,-2.7685,-2.7713,-2.7855,-2.7968,-2.7986,-2.7998,-2.7953,-2.8009,-2.8043,-2.802,-2.8243,-2.8183,-2.8211,-2.8286,-2.8509,-2.852,-2.8531,-2.8591,-2.8612,-2.863,0,0,0,0,0,0,-2.7633,-2.7706,-2.7694,-2.7835,-2.7896,-2.7961,-2.8033,-2.802,-2.8095,-2.8086,-2.8098,-2.8115,-2.8244,-2.8278,-2.821,-2.8433,-2.837,-2.8387,-2.8406,-2.8427,-2.8442,-2.8431,-2.8155,0,0,0,0,0,-2.7661,-2.7746,-2.7805,-2.7924,-2.7955,-2.7989,-2.8039,-2.8043,-2.8106,-2.8131,-2.8174,-2.8237,-2.8321,-2.8376,-2.8456,-2.8604,-2.8619,-2.8669,-2.8685,-2.8698,-2.8712,-2.8793,-2.8816,-2.8572,-2.8572,-2.8572,0,0,-2.7719,-2.7769,-2.7822,-2.7936,-2.7983,-2.8071,-2.8011,-2.8106,-2.8172,-2.8146,-2.8267,-2.8302,-2.8372,-2.851,-2.8573,-2.8542,-2.8783,-2.8712,-2.8722,-2.8729,-2.8806,-2.8829,-2.885,-2.8579,-2.8578,-2.8577,0,0,-2.787,-2.7917,-2.8021,-2.807,-2.8143,-2.8165,-2.819,-2.8259,-2.828,-2.8403,-2.8385,-2.8464,-2.8609,-2.866,-2.8705,-2.8877,-2.8859,-2.8903,-2.8986,-2.9065,-2.9084,-2.9101,-2.9162,-2.9184,-2.8917,-2.8917,-2.8917,0,-2.7933,-2.8064,-2.8076,-2.8174,-2.8224,-2.8206,-2.8311,-2.8358,-2.8454,-2.8489,-2.8454,-2.8636,-2.8682,-2.8831,-2.8874,-2.8911,-2.894,-2.8894,-2.908,-2.9098,-2.9114,-2.9172,-2.9195,-2.8922,-2.8922,-2.8921,-2.8921,0,-2.8138,-2.823,-2.8306,-2.8398,-2.8458,-2.8559,-2.8586,-2.8645,-2.8645,-2.8671,-2.8797,-2.8852,-2.8943,-2.8979,-2.898,-2.913,-2.9108,-2.9077,-2.9013,-2.9142,-2.9196,-2.9219,-2.8929,-2.8927,-2.8926,-2.8925,0,0,-2.8323,-2.8422,-2.845,-2.8492,-2.8572,-2.8643,-2.8745,-2.8834,-2.8884,-2.8952,-2.9036,-2.916,-2.9132,-2.9183,-2.9189,-2.9259,-2.9392,-2.9219,-2.9221,-2.9248,-2.956,-2.9582,-2.9607,-2.9381,-2.9385,-2.9389,-2.9554,0,-2.848,-2.8657,-2.8672,-2.8831,-2.8916,-2.8901,-2.8989,-2.9048,-2.9076,-2.9153,-2.9183,-2.9271,-2.9227,-2.9258,-2.9326,-2.9361,-2.9454,-2.935,-2.9459,-2.9463,-2.9441,-2.9636,-2.9659,-2.9812,-2.9575,-2.9579,-2.9582,0,-2.8686,-2.876,-2.8928,-2.8997,-2.9033,-2.9112,-2.9196,-2.9269,-2.9336,-2.9352,-2.941,-2.9408,-2.9512,-2.9446,-2.959,-2.9518,-2.9565,-2.9589,-2.9595,-2.9604,-2.9529,-2.965,-2.9861,-2.9884,-2.9616,-2.9613,-2.961,0,-2.8803,-2.8944,-2.9063,-2.91,-2.9184,-2.924,-2.9277,-2.934,-2.9393,-2.9467,-2.9502,-2.9587,-2.9633,-2.9699,-2.972,-2.967,-2.9864,-2.9799,-2.9879,-2.9878,-2.9918,-2.9915,-3.0139,-2.9951,-2.9951,-2.995,-2.995,0,-2.8975,-2.9079,-2.9117,-2.919,-2.9306,-2.9322,-2.9436,-2.9471,-2.9527,-2.9607,-2.96,-2.9675,-2.9698,-2.9778,-2.9795,-2.9912,-2.9933,-2.9948,-2.9951,-2.9948,-2.9946,-2.9977,-2.9966,-2.9956,-2.9955,-2.9954,-2.9953,0,-2.9124,-2.9154,-2.9283,-2.9352,-2.9372,-2.9454,-2.9514,-2.9584,-2.9612,-2.9713,-2.9738,-2.9781,-2.9874,-2.9902,-3.0014,-3.0026,-3.0162,-3.0156,-3.0139,-3.0139,-3.0217,-3.0209,-3.0467,-3.0502,-3.0293,-3.0295,-3.0296,0,-2.9231,-2.931,-2.9389,-2.9442,-2.9482,-2.9567,-2.9622,-2.9642,-2.9699,-2.9783,-2.9844,-2.9936,-3.0011,-3.0161,-3.0202,-3.0288,-3.0284,-3.0369,-3.0296,-3.0291,-3.0283,-3.0278,-3.0286,-3.0381,-3.0383,-3.0385,-3.0387,0,-2.9418,-2.9429,-2.9508,-2.9593,-2.9659,-2.9727,-2.9792,-2.9836,-2.9866,-2.9931,-3.0026,-3.0085,-3.02,-3.0292,-3.0379,-3.0418,-3.0408,-3.041,-3.0432,-3.0429,-3.0415,-3.0422,-3.0175,-3.0403,-3.0401,-3.04,-3.0399,-3.0399,-2.9548,-2.9618,-2.9684,-2.9773,-2.9825,-2.9886,-2.9956,-2.9993,-3.0073,-3.0168,-3.0176,-3.0279,-3.0346,-3.0463,-3.0507,-3.0588,-3.0563,-3.0596,-3.0605,-3.0612,-3.0618,-3.0404,-3.0604,-3.0604,-3.0603,-3.0603,-3.0603,0,-2.9733,-2.9776,-2.9857,-2.9949,-3.002,-3.0005,-3.0077,-3.0136,-3.0227,-3.029,-3.0365,-3.0475,-3.0565,-3.0614,-3.0703,-3.0759,-3.0757,-3.0782,-3.0777,-3.0786,-3.0635,-3.0606,-3.0782,-3.0782,-3.0782,-3.0782,-3.0782,-3.0782,-2.9838,-2.9955,-2.9975,-3.0118,-3.016,-3.0261,-3.0304,-3.0361,-3.0411,-3.0535,-3.0609,-3.0641,-3.0699,-3.0793,-3.0875,-3.0887,-3.092,-3.0948,-3.0957,-3.0815,-3.0796,-3.0779,-3.0751,-3.0955,-3.0955,-3.11,-3.1102,-3.1103]},{"header":{"parameterUnit":"m.s-1","parameterCategory":1,"la1":30.2991,"la2":30.254,"lo1":-89.0895,"lo2":-89.0444,"dy":0.0017,"dx":0.0017,"nx":28,"ny":28,"refTime":"2024-10-10T03:00:00:Z","depth":0,"parameterNumber":3,"parameterNumberName":"V-component_of_WINDS"},"data":[0,0,0,0,0,0,0,0,0,0,0,0,0,0,0,0,0,0,0,0,0,0,0,0,0,0,0,0,0,0,0,0,0,0,0,0,0,0,0,0,0,0,0,0,0,0,0,0,0,0,0,0,0,0,0,0,0,0,-2.4403,-2.4404,0,-2.4545,-2.4547,-2.4548,-2.4564,-2.4563,-2.4561,-2.456,-2.4701,-2.4706,-2.4711,0,0,0,0,0,0,0,0,0,0,0,0,0,-2.4142,-2.4147,-2.4403,-2.4404,-2.4406,-2.4545,-2.4547,-2.4549,-2.4564,-2.4563,-2.4561,-2.4559,-2.4699,-2.4705,-2.4712,0,0,0,0,0,0,0,0,0,0,0,0,0,-2.4267,-2.4148,-2.4402,-2.4431,-2.4435,-2.4544,-2.4547,-2.4549,-2.4565,-2.4563,-2.4561,-2.4559,-2.4697,-2.4705,-2.4712,-2.4802,0,0,-2.4736,-2.4739,0,0,0,0,0,0,0,0,-2.426,-2.4276,-2.4425,-2.4429,-2.4434,-2.4535,-2.4507,-2.4634,-2.4565,-2.4515,-2.456,-2.4558,-2.4647,-2.4659,-2.469,-2.4808,-2.4814,-2.4736,-2.4741,-2.4744,-2.4746,0,0,0,0,0,0,0,-2.4251,-2.427,-2.4459,-2.4427,-2.4433,-2.4436,-2.4451,-2.4531,-2.4591,-2.452,-2.4521,-2.4538,-2.4649,-2.4683,-2.4693,-2.4817,-2.4736,-2.4743,-2.4748,-2.4751,-2.5018,-2.502,0,0,0,0,0,0,-2.4238,-2.4263,-2.4454,-2.4463,-2.434,-2.4442,-2.4459,-2.4504,-2.4591,-2.4602,-2.454,-2.4538,-2.4671,-2.4685,-2.4698,-2.481,-2.4744,-2.4751,-2.4756,-2.5015,-2.5018,-2.5021,0,0,0,0,0,0,-2.4232,-2.4255,-2.4449,-2.4364,-2.4389,-2.4449,-2.4499,-2.4508,-2.4542,-2.4606,-2.4616,-2.4563,-2.467,-2.4688,-2.4777,-2.4815,-2.4755,-2.4762,-2.5012,-2.5016,-2.502,-2.5033,0,0,0,0,0,0,-2.4224,-2.4252,-2.4287,-2.4364,-2.4393,-2.4525,-2.4502,-2.4513,-2.4556,-2.4555,-2.463,-2.4641,-2.4669,-2.4765,-2.4784,-2.4825,-2.4768,-2.5009,-2.5014,-2.5018,-2.503,-2.5037,-2.5044,0,0,0,0,0,-2.4215,-2.4284,-2.4289,-2.4312,-2.4438,-2.4527,-2.4544,-2.4577,-2.4559,-2.4594,-2.4636,-2.4638,-2.4808,-2.4774,-2.4796,-2.4839,-2.5007,-2.5013,-2.5018,-2.5027,-2.5036,-2.5043,0,0,0,0,0,0,-2.4207,-2.4294,-2.4301,-2.4397,-2.4455,-2.453,-2.4575,-2.4585,-2.4648,-2.4644,-2.4681,-2.4698,-2.4786,-2.4821,-2.4782,-2.4931,-2.4906,-2.4916,-2.4905,-2.4914,-2.4921,-2.491,-2.4774,0,0,0,0,0,-2.4217,-2.4284,-2.4356,-2.4433,-2.4463,-2.4514,-2.4554,-2.4575,-2.4636,-2.466,-2.4708,-2.4765,-2.4832,-2.4875,-2.494,-2.5035,-2.5052,-2.5076,-2.5083,-2.5088,-2.5096,-2.5151,-2.5163,-2.504,-2.504,-2.504,0,0,-2.4237,-2.4293,-2.4332,-2.4434,-2.4481,-2.4548,-2.4534,-2.4606,-2.4656,-2.467,-2.4758,-2.4795,-2.4862,-2.4956,-2.4999,-2.4988,-2.5134,-2.5095,-2.5099,-2.5105,-2.5158,-2.517,-2.518,-2.5044,-2.5043,-2.5042,0,0,-2.4309,-2.4358,-2.4429,-2.4478,-2.4551,-2.4585,-2.4602,-2.4677,-2.4703,-2.4792,-2.4805,-2.4865,-2.4978,-2.5026,-2.5066,-2.5159,-2.5164,-2.5179,-2.5214,-2.5268,-2.5277,-2.5286,-2.532,-2.5332,-2.5187,-2.5187,-2.5187,0,-2.4324,-2.4428,-2.4464,-2.4536,-2.458,-2.4599,-2.4672,-2.4716,-2.4806,-2.4836,-2.4823,-2.4968,-2.5014,-2.512,-2.5143,-2.5174,-2.5195,-2.517,-2.5273,-2.5282,-2.5291,-2.5324,-2.5337,-2.5188,-2.5188,-2.5188,-2.5188,0,-2.4444,-2.4515,-2.4564,-2.4653,-2.4702,-2.4774,-2.4821,-2.4867,-2.4884,-2.492,-2.5012,-2.5068,-2.5146,-2.5173,-2.5189,-2.5281,-2.5273,-2.5266,-2.5241,-2.5304,-2.5335,-2.5348,-2.519,-2.519,-2.5189,-2.5189,0,0,-2.4511,-2.4622,-2.464,-2.4681,-2.4764,-2.482,-2.4893,-2.4971,-2.501,-2.5072,-2.5134,-2.5232,-2.5227,-2.5272,-2.5294,-2.5341,-2.5413,-2.5329,-2.5331,-2.5343,-2.5519,-2.5524,-2.5538,-2.5417,-2.542,-2.5422,-2.5514,0,-2.4593,-2.4725,-2.4761,-2.4873,-2.494,-2.4961,-2.5024,-2.5082,-2.5118,-2.518,-2.5219,-2.5288,-2.5276,-2.5304,-2.5351,-2.5394,-2.5449,-2.5388,-2.5475,-2.5478,-2.5457,-2.5554,-2.5559,-2.5643,-2.5526,-2.5529,-2.553,0,-2.4704,-2.4772,-2.4891,-2.4968,-2.4997,-2.5054,-2.513,-2.5189,-2.5255,-2.5278,-2.533,-2.5349,-2.5426,-2.5398,-2.5504,-2.5462,-2.5501,-2.5527,-2.5531,-2.554,-2.5507,-2.5566,-2.567,-2.5683,-2.555,-2.5548,-2.5547,0,-2.4743,-2.4863,-2.495,-2.4985,-2.5077,-2.5117,-2.5157,-2.5222,-2.5267,-2.5333,-2.5363,-2.5436,-2.5476,-2.5532,-2.5571,-2.5546,-2.5675,-2.5649,-2.5696,-2.5695,-2.5721,-2.5718,-2.5833,-2.5746,-2.5745,-2.5745,-2.5745,0,-2.483,-2.4902,-2.4969,-2.5023,-2.5105,-2.5146,-2.5226,-2.5266,-2.5324,-2.5386,-2.5407,-2.5465,-2.5512,-2.5575,-2.5606,-2.569,-2.5708,-2.5728,-2.5735,-2.5726,-2.5724,-2.5751,-2.5746,-2.5749,-2.5748,-2.5747,-2.5746,0,-2.4885,-2.4934,-2.5031,-2.5111,-2.5133,-2.519,-2.5259,-2.5312,-2.535,-2.5428,-2.5448,-2.5508,-2.5584,-2.5628,-2.5723,-2.5744,-2.5838,-2.5842,-2.5816,-2.5819,-2.5864,-2.5859,-2.5999,-2.602,-2.5919,-2.592,-2.5921,0,-2.4937,-2.4994,-2.5082,-2.5126,-2.5167,-2.5237,-2.5285,-2.5328,-2.5377,-2.5459,-2.5502,-2.558,-2.5645,-2.5766,-2.5817,-2.5891,-2.5897,-2.5941,-2.5908,-2.5898,-2.5898,-2.5894,-2.5901,-2.5946,-2.5947,-2.5948,-2.5949,0,-2.5024,-2.5046,-2.5115,-2.5193,-2.525,-2.5312,-2.5375,-2.5409,-2.5463,-2.5517,-2.5596,-2.5647,-2.5747,-2.5824,-2.5903,-2.5943,-2.5955,-2.5959,-2.5974,-2.5965,-2.5948,-2.5958,-2.5832,-2.5955,-2.5955,-2.5954,-2.5954,-2.5953,-2.508,-2.5132,-2.5203,-2.5279,-2.5332,-2.539,-2.5445,-2.5491,-2.5559,-2.5645,-2.5666,-2.575,-2.5818,-2.5925,-2.5968,-2.6034,-2.6026,-2.6047,-2.6052,-2.6057,-2.6059,-2.5938,-2.6048,-2.6048,-2.6048,-2.6048,-2.6047,0,-2.5169,-2.5216,-2.5286,-2.5375,-2.5435,-2.5444,-2.5514,-2.5564,-2.5638,-2.5701,-2.5765,-2.5858,-2.5934,-2.5992,-2.607,-2.6112,-2.612,-2.6131,-2.6128,-2.6138,-2.6061,-2.604,-2.6124,-2.6124,-2.6124,-2.6124,-2.6124,-2.6124,-2.5222,-2.5311,-2.5342,-2.5458,-2.5505,-2.5589,-2.5629,-2.5683,-2.5734,-2.5837,-2.5901,-2.594,-2.6001,-2.6084,-2.6155,-2.617,-2.6198,-2.6208,-2.6224,-2.6151,-2.6143,-2.6135,-2.6116,-2.6214,-2.6214,-2.6296,-2.6297,-2.6297]}]]